TimeEDT,TemperatureF,Dew PointF,Humidity,Sea Level PressureIn,VisibilityMPH,Wind Direction,Wind SpeedMPH,Gust SpeedMPH,PrecipitationIn,Events,Conditions,WindDirDegrees,DateUTC
12:15 AM,73.6,62.4,68,30.14,10.0,WSW,3.5,-,N/A,,Clear,240,2013-06-22 04:15:00
12:35 AM,72.5,63.3,73,30.14,10.0,Calm,Calm,-,N/A,,Clear,0,2013-06-22 04:35:00
12:55 AM,72.5,63.3,73,30.14,10.0,Calm,Calm,-,N/A,,Clear,0,2013-06-22 04:55:00
1:15 AM,72.0,64.0,76,30.15,10.0,Calm,Calm,-,N/A,,Clear,0,2013-06-22 05:15:00
1:35 AM,71.8,64.4,77,30.14,10.0,Calm,Calm,-,N/A,,Clear,0,2013-06-22 05:35:00
1:55 AM,71.2,64.8,80,30.14,7.0,West,3.5,-,N/A,,Clear,280,2013-06-22 05:55:00
2:15 AM,70.7,64.2,80,30.14,10.0,Calm,Calm,-,N/A,,Scattered Clouds,0,2013-06-22 06:15:00
2:35 AM,70.7,64.2,80,30.13,7.0,Calm,Calm,-,N/A,,Mostly Cloudy,0,2013-06-22 06:35:00
2:55 AM,71.1,64.4,79,30.12,10.0,SSE,4.6,-,N/A,,Mostly Cloudy,160,2013-06-22 06:55:00
3:15 AM,71.2,64.0,78,30.11,7.0,South,3.5,-,N/A,,Scattered Clouds,170,2013-06-22 07:15:00
3:35 AM,71.8,63.7,76,30.10,10.0,South,5.8,-,N/A,,Scattered Clouds,190,2013-06-22 07:35:00
3:55 AM,72.1,63.0,73,30.09,10.0,South,5.8,-,N/A,,Clear,180,2013-06-22 07:55:00
4:15 AM,71.8,62.8,73,30.09,10.0,South,5.8,-,N/A,,Clear,180,2013-06-22 08:15:00
4:35 AM,71.6,62.6,73,30.10,10.0,South,3.5,-,N/A,,Clear,190,2013-06-22 08:35:00
4:55 AM,71.2,62.8,75,30.09,10.0,South,4.6,-,N/A,,Clear,180,2013-06-22 08:55:00
5:15 AM,71.1,62.8,75,30.09,7.0,South,5.8,-,N/A,,Clear,180,2013-06-22 09:15:00
5:35 AM,71.1,62.6,75,30.10,10.0,South,5.8,-,N/A,,Clear,190,2013-06-22 09:35:00
5:55 AM,71.2,62.8,75,30.10,7.0,SSW,6.9,-,N/A,,Clear,210,2013-06-22 09:55:00
6:15 AM,71.6,63.1,75,30.11,10.0,SSW,6.9,-,N/A,,Scattered Clouds,210,2013-06-22 10:15:00
6:35 AM,71.8,63.7,76,30.11,7.0,SSW,6.9,-,N/A,,Mostly Cloudy,210,2013-06-22 10:35:00
6:55 AM,72.1,64.0,76,30.12,7.0,SSW,6.9,-,N/A,,Overcast,200,2013-06-22 10:55:00
7:15 AM,72.0,64.4,77,30.12,7.0,SSW,6.9,-,N/A,,Mostly Cloudy,210,2013-06-22 11:15:00
7:35 AM,72.1,64.6,77,30.12,5.0,SSW,6.9,-,N/A,,Haze,210,2013-06-22 11:35:00
7:55 AM,72.3,64.8,77,30.12,7.0,South,8.1,-,N/A,,Scattered Clouds,190,2013-06-22 11:55:00
8:15 AM,72.3,64.9,78,30.12,7.0,SSW,8.1,-,N/A,,Clear,200,2013-06-22 12:15:00
8:35 AM,73.6,65.5,76,30.13,7.0,SSW,8.1,-,N/A,,Clear,200,2013-06-22 12:35:00
8:55 AM,74.8,65.7,73,30.14,7.0,SW,8.1,-,N/A,,Clear,220,2013-06-22 12:55:00
9:15 AM,76.1,66.2,71,30.15,10.0,SW,9.2,-,N/A,,Clear,230,2013-06-22 13:15:00
9:35 AM,77.2,66.4,69,30.15,7.0,SW,10.4,-,N/A,,Clear,220,2013-06-22 13:35:00
9:55 AM,78.4,66.6,67,30.15,10.0,WSW,9.2,-,N/A,,Clear,240,2013-06-22 13:55:00
10:15 AM,79.5,66.6,64,30.15,7.0,WSW,10.4,-,N/A,,Clear,240,2013-06-22 14:15:00
10:35 AM,80.1,66.6,63,30.14,10.0,WSW,9.2,-,N/A,,Scattered Clouds,240,2013-06-22 14:35:00
10:55 AM,81.1,66.7,61,30.14,10.0,WSW,9.2,-,N/A,,Mostly Cloudy,240,2013-06-22 14:55:00
11:15 AM,82.4,67.1,60,30.14,7.0,SW,11.5,16.1,N/A,,Scattered Clouds,230,2013-06-22 15:15:00
11:35 AM,83.1,67.3,59,30.14,7.0,WSW,9.2,16.1,N/A,,Clear,250,2013-06-22 15:35:00
11:55 AM,83.7,66.9,57,30.14,7.0,WSW,13.8,19.6,N/A,,Clear,250,2013-06-22 15:55:00
12:15 PM,84.6,66.6,55,30.15,7.0,WSW,12.7,-,N/A,,Clear,250,2013-06-22 16:15:00
12:35 PM,85.1,66.7,54,30.14,7.0,WSW,12.7,-,N/A,,Scattered Clouds,240,2013-06-22 16:35:00
12:55 PM,85.8,66.7,53,30.14,10.0,West,11.5,-,N/A,,Scattered Clouds,260,2013-06-22 16:55:00
1:15 PM,86.4,67.3,53,30.13,7.0,West,9.2,-,N/A,,Scattered Clouds,270,2013-06-22 17:15:00
1:35 PM,86.4,67.3,53,30.13,7.0,West,8.1,17.3,N/A,,Scattered Clouds,260,2013-06-22 17:35:00
1:55 PM,86.7,66.7,51,30.12,7.0,WSW,11.5,-,N/A,,Scattered Clouds,250,2013-06-22 17:55:00
2:15 PM,86.0,66.9,53,30.12,7.0,WSW,8.1,-,N/A,,Mostly Cloudy,250,2013-06-22 18:15:00
2:35 PM,86.9,68.2,54,30.12,7.0,SW,11.5,-,N/A,,Scattered Clouds,230,2013-06-22 18:35:00
2:55 PM,85.5,65.8,52,30.11,10.0,WSW,15.0,25.3,N/A,,Clear,240,2013-06-22 18:55:00
3:15 PM,84.0,60.1,44,30.10,10.0,SW,13.8,24.2,N/A,,Clear,230,2013-06-22 19:15:00
3:35 PM,85.3,62.1,46,30.09,10.0,SW,13.8,17.3,N/A,,Mostly Cloudy,230,2013-06-22 19:35:00
3:55 PM,86.0,66.2,51,30.09,7.0,WSW,12.7,19.6,N/A,,Scattered Clouds,240,2013-06-22 19:55:00
4:15 PM,84.9,65.5,52,30.08,7.0,West,17.3,24.2,N/A,,Clear,260,2013-06-22 20:15:00
4:35 PM,82.6,60.4,47,30.08,10.0,WNW,9.2,-,N/A,,Clear,290,2013-06-22 20:35:00
4:55 PM,82.0,61.3,49,30.09,10.0,North,8.1,19.6,N/A,,Clear,360,2013-06-22 20:55:00
5:15 PM,79.7,63.7,58,30.08,7.0,WNW,3.5,-,N/A,,Clear,300,2013-06-22 21:15:00
5:35 PM,79.5,62.6,56,30.05,7.0,Calm,Calm,-,N/A,,Clear,0,2013-06-22 21:35:00
5:55 PM,79.3,63.9,59,30.06,7.0,South,18.4,24.2,N/A,,Scattered Clouds,190,2013-06-22 21:55:00
6:15 PM,76.3,64.6,67,30.06,7.0,South,11.5,21.9,N/A,,Clear,190,2013-06-22 22:15:00
6:35 PM,75.0,64.4,69,30.02,7.0,South,13.8,-,N/A,,Clear,190,2013-06-22 22:35:00
6:55 PM,75.4,63.9,67,30.04,7.0,South,10.4,-,N/A,,Clear,180,2013-06-22 22:55:00
7:15 PM,76.3,63.5,64,30.05,7.0,South,9.2,-,N/A,,Clear,190,2013-06-22 23:15:00
7:35 PM,76.5,62.8,62,30.08,7.0,SSW,10.4,-,N/A,,Clear,210,2013-06-22 23:35:00
7:55 PM,75.4,62.4,64,30.08,7.0,SSW,8.1,-,N/A,,Clear,210,2013-06-22 23:55:00
8:15 PM,74.8,62.8,66,30.08,10.0,SW,9.2,-,N/A,,Clear,230,2013-06-23 00:15:00
8:35 PM,74.7,63.3,68,30.09,7.0,SW,9.2,-,N/A,,Clear,230,2013-06-23 00:35:00
8:55 PM,74.8,63.7,68,30.10,7.0,SW,5.8,-,N/A,,Clear,230,2013-06-23 00:55:00
9:15 PM,74.1,63.9,70,30.09,10.0,SSW,6.9,-,N/A,,Clear,200,2013-06-23 01:15:00
9:35 PM,73.0,63.9,73,30.09,7.0,SSW,5.8,-,N/A,,Clear,200,2013-06-23 01:35:00
9:55 PM,72.5,64.2,75,30.10,10.0,South,5.8,-,N/A,,Clear,170,2013-06-23 01:55:00
10:15 PM,72.0,64.4,77,30.09,10.0,South,6.9,-,N/A,,Clear,170,2013-06-23 02:15:00
10:35 PM,71.8,64.4,77,30.10,7.0,South,8.1,-,N/A,,Clear,170,2013-06-23 02:35:00
10:55 PM,71.4,64.4,78,30.08,10.0,South,8.1,-,N/A,,Clear,180,2013-06-23 02:55:00
11:15 PM,70.9,64.4,80,30.09,10.0,Calm,Calm,-,N/A,,Clear,0,2013-06-23 03:15:00
11:35 PM,70.2,64.4,82,30.09,10.0,Calm,Calm,-,N/A,,Clear,0,2013-06-23 03:35:00
11:55 PM,69.3,64.4,84,30.09,7.0,SSE,3.5,-,N/A,,Clear,150,2013-06-23 03:55:00